Notices

What's New in latest Release from April 7th, 2021:

- Updated Glossary, including Speed of Maximum Gust, and Total Hourly Precipitation

- Updated national and regional climate services offices contacts and prices information

- Addition of station inventory lists for 1981-2010, 1971-2000, and 1961-1990 Normals.

If you haven't already, please take our survey and provide feedback about our website: https://eccc.sondage-survey.ca/f/LanguageSelection.aspx?s=442ca660-fcf1-47c0-95a9-59707d6fd709

Hourly Data Report for April 22, 2003

TORONTO CITY
ONTARIO

43°40'00.000" N
79°24'00.000" W
112.50 m
6158355
71508
XTO

Download Data

Hourly Data (April 2003)
Hourly Data Report for April 22, 2003
TIME
LST
Temp Definition
°C
Dew Point Definition
°C
Rel Hum Definition
%
Precip. Amount Definition
mm

Wind Dir Definition
10's deg

Wind Spd Definition
km/h
Visibility Definition
km
Stn Press Definition
kPa
Hmdx Definition


Wind Chill Definition


Weather Definition


00:00 11.1 8.5 84   LegendMM LegendMM LegendMM 99.15     LegendNANA
01:00 10.2 8.2 87   LegendMM LegendMM LegendMM 99.13     LegendNANA
02:00 10.3 8.1 86   LegendMM LegendMM LegendMM 99.08     LegendNANA
03:00 9.7 7.5 86   LegendMM LegendMM LegendMM 99.06     LegendNANA
04:00 9.6 7.8 89   LegendMM LegendMM LegendMM 99.06     LegendNANA
05:00 9.6 7.3 86   LegendMM LegendMM LegendMM 99.08     LegendNANA
06:00 9.4 7.4 87   LegendMM LegendMM LegendMM 99.09     LegendNANA
07:00 8.8 7.4 91   LegendMM LegendMM LegendMM 99.12     LegendNANA
08:00 8.2 7.0 92   LegendMM LegendMM LegendMM 99.15     LegendNANA
09:00 8.3 6.5 88   LegendMM LegendMM LegendMM 99.18     LegendNANA
10:00 8.2 5.6 84   LegendMM LegendMM LegendMM 99.22     LegendNANA
11:00 8.1 4.4 77   LegendMM LegendMM LegendMM 99.23     LegendNANA
12:00 8.0 4.5 79   LegendMM LegendMM LegendMM 99.25     LegendNANA
13:00 7.8 4.2 78   LegendMM LegendMM LegendMM 99.25     LegendNANA
14:00 7.8 4.9 82   LegendMM LegendMM LegendMM 99.27     LegendNANA
15:00 5.4 3.6 88   LegendMM LegendMM LegendMM 99.33     LegendNANA
16:00 5.9 2.4 78   LegendMM LegendMM LegendMM 99.38     LegendNANA
17:00 4.7 0.8 76   LegendMM LegendMM LegendMM 99.44     LegendNANA
18:00 4.0 0.0 75   LegendMM LegendMM LegendMM 99.52     LegendNANA
19:00 3.1 -0.2 79   LegendMM LegendMM LegendMM 99.58     LegendNANA
20:00 2.4 0.4 87   LegendMM LegendMM LegendMM 99.66     LegendNANA
21:00 2.4 -0.1 84   LegendMM LegendMM LegendMM 99.72     LegendNANA
22:00 2.5 -0.1 83   LegendMM LegendMM LegendMM 99.77     LegendNANA
23:00 2.7 -0.3 81   LegendMM LegendMM LegendMM 99.81     LegendNANA

Notes on Data Quality.

Legend

  • E = Estimated
  • M = Missing
  • NA = Not Available*
  • [empty] = Indicates an unobserved value
Date modified: